Benjamin Rivera Noriega Airport


Codes: TJCP/CPX
Name: Benjamin Rivera Noriega Airport
City: Culebra Island
Country: Puerto Rico
Elevation: 49 ft.
Wikipedia:

Photos at Benjamin Rivera Noriega Airport


   Photos courtesy of SpottingLog. You can add your own sightings and photos by signing up for a free trial today.



No photos found.

Weather at Benjamin Rivera Noriega Airport


Time (UTC)DescriptionTempratureWindCloud coverageVisibilityPressureHumidity
23-May-2024 21:00Light Rain29°C16 mph, SE98%10000m1015hPa77%
24-May-2024 00:00Light Rain29°C13 mph, SE93%10000m1015hPa78%
24-May-2024 03:00Light Rain28°C13 mph, SE100%10000m1015hPa78%
24-May-2024 06:00Light Rain28°C13 mph, SE99%10000m1013hPa78%
24-May-2024 09:00Light Rain28°C16 mph, SE100%10000m1013hPa78%
24-May-2024 12:00Light Rain28°C18 mph, SE100%10000m1014hPa80%
24-May-2024 15:00Light Rain28°C13 mph, SE82%10000m1015hPa78%
24-May-2024 18:00Light Rain27°C9 mph, SE91%10000m1014hPa79%
24-May-2024 21:00Light Rain27°C7 mph, SE85%4966m1013hPa79%
25-May-2024 00:00Light Rain28°C9 mph, SE84%10000m1014hPa76%
25-May-2024 03:00Overcast Clouds28°C7 mph, SE100%10000m1015hPa75%
25-May-2024 06:00Light Rain28°C11 mph, SE99%10000m1013hPa76%
25-May-2024 09:00Scattered Clouds28°C11 mph, SE43%10000m1013hPa70%
25-May-2024 12:00Scattered Clouds28°C11 mph, SE45%10000m1014hPa72%
25-May-2024 15:00Broken Clouds28°C9 mph, E83%10000m1015hPa75%
25-May-2024 18:00Broken Clouds28°C7 mph, E78%10000m1014hPa74%
25-May-2024 21:00Overcast Clouds28°C7 mph, E96%10000m1013hPa73%
26-May-2024 00:00Overcast Clouds28°C11 mph, E98%10000m1014hPa77%
26-May-2024 03:00Light Rain28°C11 mph, SE100%10000m1015hPa74%
26-May-2024 06:00Overcast Clouds28°C11 mph, SE93%10000m1014hPa74%
26-May-2024 09:00Light Rain28°C11 mph, E93%10000m1014hPa78%
26-May-2024 12:00Light Rain28°C13 mph, E84%10000m1015hPa76%
26-May-2024 15:00Light Rain28°C13 mph, SE87%10000m1016hPa77%
26-May-2024 18:00Light Rain29°C11 mph, E94%10000m1014hPa76%
26-May-2024 21:00Light Rain29°C9 mph, E100%10000m1014hPa75%
27-May-2024 00:00Light Rain28°C13 mph, E100%10000m1015hPa78%
27-May-2024 03:00Overcast Clouds28°C13 mph, E100%10000m1016hPa76%
27-May-2024 06:00Light Rain28°C11 mph, E100%10000m1015hPa77%
27-May-2024 09:00Light Rain28°C13 mph, E100%10000m1015hPa79%
27-May-2024 12:00Light Rain28°C13 mph, E100%10000m1017hPa79%
27-May-2024 15:00Light Rain28°C13 mph, SE100%10000m1017hPa78%
27-May-2024 18:00Light Rain28°C13 mph, E100%10000m1015hPa79%
27-May-2024 21:00Light Rain28°C11 mph, E100%10000m1015hPa78%
28-May-2024 00:00Moderate Rain28°C7 mph, E100%10000m1017hPa79%
28-May-2024 03:00Light Rain28°C9 mph, NE100%10000m1018hPa80%
28-May-2024 06:00Moderate Rain28°C13 mph, NE100%10000m1016hPa74%
28-May-2024 09:00Light Rain28°C16 mph, E100%10000m1016hPa73%
28-May-2024 12:00Light Rain28°C18 mph, E100%10000m1017hPa75%
28-May-2024 15:00Light Rain27°C16 mph, E95%10000m1017hPa79%
28-May-2024 18:00Light Rain28°C16 mph, E82%10000m1016hPa80%